Flag for U.S.A. Weather past 2 weeks in Cambridge, Massachusetts, U.S.A.

Now
64 °F

Passing clouds.


Feels Like: 64 °F
Forecast: 59 / 79 °F
Wind: 9 mph from Northwest

Location: Logan International Airport

Current Time: Aug 28, 2015 at 6:21:22 AM

Latest Report: Aug 28, 2015 at 5:54 AM


Visibility: 10 mi

Pressure: 30.10 "Hg

Humidity: 68%

Dew point: 53 °F

Location of CambridgeLocation

Historic Weather in Cambridge — Graph

°F

Cambridge temperature yesterday

Maximum temperature yesterday: 82 °F (at 1:54 PM)
Minimum temperature yesterday: 66 °F (at 4:54 AM)
Average temperature yesterday: 73 °F

Past Weeks' High & Low Weather Summary

 TemperatureHumidityPressure
High90 °F (Aug 15, 3:54 PM)100% (Aug 20, 11:54 PM)30.14 "Hg (Aug 20, 11:54 PM)
Low64 °F (Aug 14, 5:54 AM)37% (Aug 14, 10:54 AM)29.83 "Hg (Aug 25, 5:54 PM)
Average74 °F76%30.01 "Hg
* Reported Aug 13 4:54 AM — Aug 28 4:54 AM, Cambridge, Weather by CustomWeather, © 2015

Note: Actual official high and low records may vary slightly from our data, if they occured in-between our weather recording intervals... More about our weather records

Advertising

Cambridge weather history for previous 24 hours

 ConditionsComfort  
Time TempWeatherWind HumidityBarometerVisibility
4:54 AM
Fri, Aug 28
65 °FClear.7 mph66%30.09 "Hg10 mi
3:54 AM65 °FClear.9 mph68%30.09 "Hg10 mi
2:54 AM66 °FClear.8 mph65%30.08 "Hg10 mi
1:54 AM66 °FClear.8 mph65%30.08 "Hg10 mi
12:54 AM68 °FClear.8 mph61%30.07 "Hg10 mi
11:54 PM
Thu, Aug 27
69 °FPassing clouds.6 mph61%30.07 "Hg10 mi
10:54 PM71 °FPassing clouds.10 mph55%30.06 "Hg10 mi
9:54 PM72 °FPassing clouds.7 mph53%30.05 "Hg10 mi
8:54 PM74 °FPassing clouds.10 mph48%30.03 "Hg10 mi
7:54 PM75 °FScattered clouds.12 mph45%30.01 "Hg10 mi
6:54 PM77 °FScattered clouds.13 mph42%29.99 "Hg10 mi
5:54 PM78 °FScattered clouds.9 mph43%29.97 "Hg10 mi
4:54 PM78 °FScattered clouds.13 mph45%29.96 "Hg10 mi
2:54 PM82 °FScattered clouds.13 mph41%29.96 "Hg10 mi
1:54 PM82 °FScattered clouds.10 mph40%29.96 "Hg10 mi
12:54 PM80 °FScattered clouds.8 mph39%29.97 "Hg10 mi
11:54 AM78 °FScattered clouds.6 mph40%29.98 "Hg10 mi
10:54 AM77 °FScattered clouds.9 mph45%29.99 "Hg10 mi
9:54 AM74 °FScattered clouds.9 mph50%29.99 "Hg10 mi
8:54 AM73 °FScattered clouds.13 mph50%29.99 "Hg10 mi
7:54 AM69 °FScattered clouds.12 mph59%29.98 "Hg10 mi
6:54 AM67 °FPassing clouds.9 mph63%29.97 "Hg10 mi
Weather by CustomWeather, © 2015

See weather overviewHow to use our weather pages